AUA184 LGSK-LOWW

Flight info

Callsign AUA184
Flight time N/A
Altitude 36000
Route TSL UL617 MAKED DCT LONTA UL608 DOLEV DCT OBUTI OBUTI2W
Aircraft A320/M-SDE3FGHIRWY/LB1

Departure

Time 2026-04-19 09:38
Airport Skiathos Island National Airport (LGSK)

Arrival

Time N/A
Airport Vienna International Airport (LOWW)
Time Latitude Longitude Altitude Speed Heading
2026-04-19 08:27 39.17877 23.50221 93 ft 0 kts 288°
2026-04-19 09:31 39.17877 23.50223 93 ft 0 kts 287°
2026-04-19 09:32 39.17876 23.50224 93 ft 0 kts 287°
2026-04-19 09:32 39.17874 23.50234 92 ft 2 kts 288°
2026-04-19 09:32 39.17870 23.50253 89 ft 2 kts 287°
2026-04-19 09:32 39.17865 23.50273 87 ft 2 kts 288°
2026-04-19 09:33 39.17862 23.50285 86 ft 2 kts 283°
2026-04-19 09:33 39.17864 23.50303 85 ft 2 kts 234°
2026-04-19 09:33 39.17873 23.50312 85 ft 0 kts 204°
2026-04-19 09:33 39.17880 23.50315 85 ft 1 kts 199°
2026-04-19 09:35 39.17847 23.50301 82 ft 10 kts 200°
2026-04-19 09:35 39.17768 23.50265 75 ft 8 kts 200°
2026-04-19 09:36 39.17711 23.50294 66 ft 15 kts 110°
2026-04-19 09:36 39.17792 23.50398 71 ft 22 kts 19°
2026-04-19 09:36 39.17970 23.50476 81 ft 32 kts 18°
2026-04-19 09:36 39.18177 23.50569 87 ft 30 kts 19°
2026-04-19 09:37 39.18360 23.50650 80 ft 25 kts 19°
2026-04-19 09:37 39.18492 23.50736 71 ft 14 kts 15°
2026-04-19 09:37 39.18483 23.50705 74 ft 7 kts 186°
2026-04-19 09:37 39.18404 23.50670 77 ft 33 kts 199°
2026-04-19 09:38 39.17921 23.50458 79 ft 109 kts 199°
2026-04-19 09:38 39.17012 23.50055 235 ft 151 kts 198°
2026-04-19 09:38 39.16039 23.49624 913 ft 149 kts 199°
2026-04-19 09:38 39.15093 23.49213 1700 ft 142 kts 198°
2026-04-19 09:39 39.14143 23.48795 2196 ft 150 kts 198°
2026-04-19 09:39 39.13108 23.48380 2525 ft 164 kts 187°
2026-04-19 09:39 39.11986 23.48758 2798 ft 180 kts 137°
2026-04-19 09:39 39.11325 23.50182 3159 ft 198 kts 112°
2026-04-19 09:40 39.10882 23.51894 3658 ft 208 kts 109°
2026-04-19 09:40 39.10427 23.53676 4335 ft 210 kts 107°
2026-04-19 09:40 39.10433 23.55559 4727 ft 227 kts 68°
2026-04-19 09:40 39.11463 23.57085 5367 ft 236 kts 29°
2026-04-19 09:41 39.13081 23.57608 5824 ft 255 kts 357°
2026-04-19 09:41 39.14890 23.57236 6295 ft 272 kts 349°
2026-04-19 09:41 39.16784 23.56714 6845 ft 285 kts 348°
2026-04-19 09:41 39.18766 23.56166 7311 ft 301 kts 349°
2026-04-19 09:42 39.20842 23.55611 7959 ft 310 kts 349°
2026-04-19 09:42 39.22953 23.55057 8761 ft 313 kts 349°
2026-04-19 09:42 39.25088 23.54501 9552 ft 316 kts 350°
2026-04-19 09:42 39.27229 23.53947 10324 ft 319 kts 350°
2026-04-19 09:43 39.29384 23.53390 11083 ft 321 kts 350°
2026-04-19 09:43 39.31587 23.52824 11798 ft 325 kts 350°
2026-04-19 09:43 39.33805 23.52252 12462 ft 330 kts 350°
2026-04-19 09:43 39.34500 23.52073 12587 ft 334 kts 350°
2026-04-19 09:44 39.36709 23.51534 12938 ft 346 kts 346°
2026-04-19 09:44 39.39087 23.50920 13484 ft 352 kts 345°
2026-04-19 09:44 39.41448 23.50171 14174 ft 351 kts 341°
2026-04-19 09:45 39.43742 23.49226 14877 ft 350 kts 338°
2026-04-19 09:45 39.46031 23.48138 15522 ft 352 kts 337°
2026-04-19 09:45 39.48308 23.47027 16126 ft 354 kts 338°
2026-04-19 09:45 39.50603 23.45911 16720 ft 356 kts 337°
2026-04-19 09:46 39.52914 23.44779 17307 ft 357 kts 338°
2026-04-19 09:46 39.55241 23.43650 17876 ft 359 kts 338°
2026-04-19 09:46 39.57580 23.42509 18425 ft 361 kts 338°
2026-04-19 09:46 39.59899 23.41377 18966 ft 362 kts 339°
2026-04-19 09:47 39.62255 23.40229 19489 ft 364 kts 339°
2026-04-19 09:47 39.64623 23.39079 19983 ft 366 kts 339°
2026-04-19 09:47 39.67005 23.37920 20463 ft 368 kts 340°
2026-04-19 09:47 39.69384 23.36760 20930 ft 370 kts 340°
2026-04-19 09:48 39.71793 23.35584 21388 ft 372 kts 340°
2026-04-19 09:48 39.74223 23.34397 21833 ft 374 kts 340°
2026-04-19 09:48 39.76658 23.33208 22263 ft 377 kts 340°
2026-04-19 09:48 39.79106 23.32014 22685 ft 379 kts 340°
2026-04-19 09:49 39.81573 23.30807 23091 ft 381 kts 340°
2026-04-19 09:49 39.84058 23.29590 23481 ft 384 kts 341°
2026-04-19 09:49 39.86549 23.28371 23860 ft 386 kts 341°
2026-04-19 09:49 39.89053 23.27147 24234 ft 388 kts 341°
2026-04-19 09:50 39.91599 23.25900 24604 ft 390 kts 341°
2026-04-19 09:50 39.94113 23.24667 24958 ft 393 kts 341°
2026-04-19 09:50 39.96680 23.23407 25310 ft 395 kts 341°
2026-04-19 09:50 39.99224 23.22156 25651 ft 397 kts 340°
2026-04-19 09:51 40.01808 23.20885 25978 ft 399 kts 340°
2026-04-19 09:51 40.04409 23.19603 26300 ft 401 kts 340°
2026-04-19 09:51 40.07014 23.18318 26614 ft 403 kts 340°
2026-04-19 09:51 40.09630 23.17028 26919 ft 405 kts 340°
2026-04-19 09:52 40.12250 23.15733 27228 ft 407 kts 340°
2026-04-19 09:52 40.14895 23.14426 27531 ft 408 kts 340°
2026-04-19 09:52 40.17559 23.13108 27825 ft 410 kts 340°
2026-04-19 09:52 40.20211 23.11794 28109 ft 412 kts 340°
2026-04-19 09:53 40.22912 23.10456 28387 ft 414 kts 340°
2026-04-19 09:53 40.25578 23.09133 28653 ft 416 kts 340°
2026-04-19 09:53 40.28282 23.07791 28916 ft 417 kts 340°
2026-04-19 09:53 40.30992 23.06444 29162 ft 419 kts 340°
2026-04-19 09:54 40.33725 23.05084 29401 ft 421 kts 340°
2026-04-19 09:54 40.36456 23.03724 29629 ft 422 kts 340°
2026-04-19 09:54 40.39205 23.02354 29866 ft 423 kts 340°
2026-04-19 09:54 40.41939 23.00990 30163 ft 422 kts 340°
2026-04-19 09:55 40.44642 22.99559 30470 ft 422 kts 337°
2026-04-19 09:55 40.47288 22.97949 30774 ft 421 kts 335°
2026-04-19 09:55 40.49895 22.96183 31066 ft 420 kts 333°
2026-04-19 09:55 40.52435 22.94415 31346 ft 420 kts 333°
2026-04-19 09:56 40.55003 22.92619 31626 ft 419 kts 333°
2026-04-19 09:56 40.57568 22.90820 31896 ft 419 kts 333°
2026-04-19 09:56 40.60126 22.88988 32160 ft 418 kts 330°
2026-04-19 09:56 40.62490 22.86781 32408 ft 419 kts 323°
2026-04-19 09:57 40.64748 22.84322 32683 ft 419 kts 322°
2026-04-19 09:57 40.66975 22.81839 32935 ft 418 kts 322°
2026-04-19 09:57 40.69168 22.79388 33172 ft 418 kts 322°
2026-04-19 09:57 40.71391 22.76908 33417 ft 417 kts 322°
2026-04-19 09:58 40.73608 22.74439 33659 ft 416 kts 322°
2026-04-19 09:58 40.75799 22.72000 33889 ft 416 kts 322°
2026-04-19 09:58 40.78017 22.69532 34112 ft 415 kts 322°
2026-04-19 09:58 40.80194 22.67109 34318 ft 415 kts 322°
2026-04-19 09:59 40.82411 22.64641 34496 ft 415 kts 322°
2026-04-19 09:59 40.84629 22.62170 34657 ft 416 kts 322°
2026-04-19 09:59 40.86844 22.59701 34812 ft 416 kts 322°
2026-04-19 09:59 40.89037 22.57254 34957 ft 417 kts 322°
2026-04-19 10:00 40.91243 22.54791 35100 ft 417 kts 322°
2026-04-19 10:00 40.93455 22.52318 35238 ft 418 kts 322°
2026-04-19 10:00 40.95686 22.49822 35366 ft 418 kts 322°
2026-04-19 10:00 40.97892 22.47352 35492 ft 419 kts 322°
2026-04-19 10:01 41.00121 22.44853 35615 ft 419 kts 321°
2026-04-19 10:01 41.02351 22.42352 35734 ft 420 kts 321°
2026-04-19 10:01 41.04581 22.39849 35851 ft 420 kts 321°
2026-04-19 10:01 41.06790 22.37366 35956 ft 420 kts 321°
2026-04-19 10:02 41.09020 22.34858 36049 ft 421 kts 321°
2026-04-19 10:02 41.13477 22.29837 36057 ft 422 kts 321°
2026-04-19 10:03 41.17941 22.24800 36058 ft 422 kts 321°
2026-04-19 10:03 41.22382 22.19778 36058 ft 422 kts 321°
2026-04-19 10:04 41.26843 22.14726 36058 ft 421 kts 321°
2026-04-19 10:04 41.31308 22.09659 36058 ft 421 kts 321°
2026-04-19 10:05 41.35785 22.04568 36058 ft 422 kts 321°
2026-04-19 10:05 41.40225 21.99514 36058 ft 421 kts 321°
2026-04-19 10:06 41.44688 21.94420 36058 ft 422 kts 321°
2026-04-19 10:06 41.49128 21.89344 36058 ft 421 kts 321°
2026-04-19 10:07 41.53569 21.84257 36058 ft 422 kts 321°
2026-04-19 10:07 41.58007 21.79165 36058 ft 422 kts 321°
2026-04-19 10:08 41.62470 21.74033 36058 ft 422 kts 321°
2026-04-19 10:08 41.66901 21.68929 36059 ft 422 kts 321°
2026-04-19 10:09 41.71363 21.63779 36058 ft 422 kts 321°
2026-04-19 10:09 41.75802 21.58647 36058 ft 422 kts 321°
2026-04-19 10:10 41.80210 21.53539 36058 ft 422 kts 321°
2026-04-19 10:10 41.84663 21.48370 36058 ft 422 kts 321°
2026-04-19 10:11 41.89080 21.43234 36058 ft 422 kts 321°
2026-04-19 10:11 41.93510 21.38072 36058 ft 421 kts 321°
2026-04-19 10:12 41.97930 21.32912 36058 ft 422 kts 320°
2026-04-19 10:12 42.02367 21.27725 36059 ft 422 kts 320°
2026-04-19 10:13 42.06779 21.22554 36059 ft 422 kts 320°
2026-04-19 10:13 42.11192 21.17374 36060 ft 422 kts 320°
2026-04-19 10:14 42.15617 21.12169 36058 ft 422 kts 320°
2026-04-19 10:14 42.20007 21.06994 36059 ft 422 kts 320°
2026-04-19 10:15 42.24405 21.01800 36058 ft 422 kts 320°
2026-04-19 10:15 42.28822 20.96574 36058 ft 422 kts 320°
2026-04-19 10:16 42.33221 20.91359 36058 ft 422 kts 320°
2026-04-19 10:16 42.37636 20.86116 36058 ft 422 kts 320°
2026-04-19 10:17 42.42034 20.80881 36058 ft 422 kts 320°
2026-04-19 10:17 42.46429 20.75641 36058 ft 422 kts 320°
2026-04-19 10:18 42.50841 20.70370 36058 ft 422 kts 320°
2026-04-19 10:18 42.55235 20.65112 36059 ft 422 kts 320°
2026-04-19 10:19 42.61801 20.57232 36058 ft 422 kts 320°
2026-04-19 10:19 42.66172 20.51973 36058 ft 422 kts 320°
2026-04-19 10:20 42.70564 20.46681 36058 ft 422 kts 320°
2026-04-19 10:20 42.74963 20.41368 36058 ft 422 kts 320°
2026-04-19 10:21 42.79351 20.36058 36058 ft 422 kts 320°
2026-04-19 10:21 42.83768 20.30805 36058 ft 421 kts 322°
2026-04-19 10:22 42.88359 20.25910 36059 ft 421 kts 323°
2026-04-19 10:22 42.93001 20.21021 36058 ft 421 kts 323°
2026-04-19 10:23 42.97646 20.16116 36059 ft 421 kts 323°
2026-04-19 10:23 43.02273 20.11217 36058 ft 421 kts 323°
2026-04-19 10:24 43.06918 20.06289 36059 ft 421 kts 323°
2026-04-19 10:24 43.11546 20.01371 36060 ft 421 kts 323°
2026-04-19 10:25 43.16132 19.96486 36059 ft 421 kts 323°
2026-04-19 10:25 43.20744 19.91563 36058 ft 421 kts 323°
2026-04-19 10:26 43.25355 19.86631 36058 ft 421 kts 323°
2026-04-19 10:26 43.30011 19.81643 36059 ft 421 kts 323°
2026-04-19 10:27 43.34638 19.76675 36059 ft 421 kts 323°
2026-04-19 10:27 43.39246 19.71718 36059 ft 421 kts 323°
2026-04-19 10:28 43.43859 19.66744 36058 ft 421 kts 323°
2026-04-19 10:28 43.48458 19.61778 36058 ft 421 kts 323°
2026-04-19 10:29 43.53084 19.56771 36058 ft 421 kts 323°
2026-04-19 10:29 43.57693 19.51773 36058 ft 421 kts 323°
2026-04-19 10:30 43.62288 19.46781 36058 ft 421 kts 323°
2026-04-19 10:30 43.66888 19.41771 36058 ft 421 kts 323°
2026-04-19 10:31 43.71466 19.36779 36058 ft 421 kts 323°
2026-04-19 10:31 43.76063 19.31753 36059 ft 421 kts 323°
2026-04-19 10:32 43.80628 19.26751 36059 ft 421 kts 323°
2026-04-19 10:32 43.85227 19.21703 36058 ft 421 kts 323°
2026-04-19 10:33 43.89818 19.16654 36058 ft 421 kts 323°
2026-04-19 10:33 43.94408 19.11596 36059 ft 421 kts 323°
2026-04-19 10:34 43.98976 19.06552 36058 ft 421 kts 323°
2026-04-19 10:34 44.03579 19.01460 36058 ft 421 kts 323°
2026-04-19 10:35 44.08141 18.96402 36058 ft 421 kts 323°
2026-04-19 10:35 44.12722 18.91312 36059 ft 421 kts 323°
2026-04-19 10:36 44.17290 18.86226 36059 ft 421 kts 323°
2026-04-19 10:36 44.21879 18.81107 36058 ft 421 kts 323°
2026-04-19 10:37 44.26450 18.75997 36058 ft 421 kts 323°
2026-04-19 10:37 44.31021 18.70876 36059 ft 421 kts 323°
2026-04-19 10:38 44.35574 18.65766 36058 ft 421 kts 323°
2026-04-19 10:38 44.40152 18.60617 36059 ft 421 kts 323°
2026-04-19 10:39 44.44700 18.55491 36059 ft 421 kts 323°
2026-04-19 10:39 44.49272 18.50328 36058 ft 421 kts 323°
2026-04-19 10:40 44.53831 18.45168 36058 ft 421 kts 323°
2026-04-19 10:40 44.58361 18.40030 36059 ft 421 kts 323°
2026-04-19 10:41 44.62919 18.34849 36058 ft 421 kts 322°
2026-04-19 10:41 44.67483 18.29651 36059 ft 421 kts 322°
2026-04-19 10:42 44.72008 18.24487 36059 ft 421 kts 322°
2026-04-19 10:42 44.76564 18.19278 36058 ft 421 kts 322°
2026-04-19 10:43 44.81124 18.14051 36059 ft 421 kts 322°
2026-04-19 10:43 44.85671 18.08829 36058 ft 422 kts 322°
2026-04-19 10:44 44.90215 18.03599 36058 ft 421 kts 322°
2026-04-19 10:44 44.94778 17.98338 36058 ft 421 kts 322°
2026-04-19 10:45 44.99291 17.93122 36059 ft 421 kts 322°
2026-04-19 10:45 45.03833 17.87861 36059 ft 421 kts 322°
2026-04-19 10:46 45.08367 17.82600 36058 ft 421 kts 322°
2026-04-19 10:46 45.12891 17.77338 36059 ft 421 kts 322°
2026-04-19 10:47 45.17415 17.72065 36059 ft 421 kts 322°
2026-04-19 10:47 45.21923 17.66799 36059 ft 421 kts 322°
2026-04-19 10:48 45.26460 17.61489 36058 ft 421 kts 322°
2026-04-19 10:48 45.30984 17.56183 36058 ft 422 kts 322°
2026-04-19 10:49 45.35492 17.50883 36059 ft 422 kts 322°
2026-04-19 10:49 45.39995 17.45579 36058 ft 422 kts 322°
2026-04-19 10:50 45.44522 17.40234 36058 ft 422 kts 322°
2026-04-19 10:50 45.49025 17.34907 36058 ft 422 kts 321°
2026-04-19 10:51 45.53513 17.29584 36058 ft 422 kts 321°
2026-04-19 10:51 45.58025 17.24223 36059 ft 421 kts 321°
2026-04-19 10:52 45.62543 17.18842 36058 ft 421 kts 321°
2026-04-19 10:52 45.67030 17.13488 36058 ft 421 kts 321°
2026-04-19 10:53 45.71502 17.08139 36058 ft 421 kts 321°
2026-04-19 10:53 45.76005 17.02743 36058 ft 422 kts 321°
2026-04-19 10:54 45.80512 16.97330 36058 ft 422 kts 321°
2026-04-19 10:54 45.84987 16.91941 36058 ft 422 kts 321°
2026-04-19 10:55 45.89488 16.86512 36058 ft 422 kts 321°
2026-04-19 10:55 45.93944 16.81124 36058 ft 421 kts 321°
2026-04-19 10:56 45.98437 16.75681 36058 ft 422 kts 321°
2026-04-19 10:56 46.02902 16.70258 36058 ft 422 kts 321°
2026-04-19 10:57 46.07375 16.64815 36058 ft 421 kts 321°
2026-04-19 10:57 46.11845 16.59362 36059 ft 422 kts 321°
2026-04-19 10:58 46.16297 16.53922 36059 ft 421 kts 321°
2026-04-19 10:58 46.20758 16.48456 36059 ft 422 kts 321°
2026-04-19 10:59 46.25237 16.42957 36059 ft 422 kts 321°
2026-04-19 10:59 46.29689 16.37477 36059 ft 422 kts 321°
2026-04-19 11:00 46.34357 16.32384 36059 ft 421 kts 328°
2026-04-19 11:00 46.39514 16.28473 36058 ft 420 kts 337°
2026-04-19 11:01 46.45067 16.25843 36058 ft 420 kts 346°
2026-04-19 11:01 46.50770 16.24323 36059 ft 420 kts 349°
2026-04-19 11:02 46.56513 16.22970 36058 ft 420 kts 349°
2026-04-19 11:02 46.62282 16.21609 36058 ft 420 kts 349°
2026-04-19 11:03 46.68058 16.20240 36058 ft 420 kts 349°
2026-04-19 11:03 46.73804 16.18873 36058 ft 420 kts 349°
2026-04-19 11:04 46.79541 16.17504 36059 ft 420 kts 349°
2026-04-19 11:04 46.85292 16.16130 36059 ft 421 kts 349°
2026-04-19 11:05 46.91047 16.14750 36058 ft 421 kts 349°
2026-04-19 11:05 46.94103 16.14017 36058 ft 420 kts 349°